Regional Weather Roundup
Issued by NWS Jackson, KY

Home | Current Version | Previous Version | Text Only | Print | Product List | Glossary Off
Versions: 1 2 3 4 5 6 7 8 9 10 11 12 13 14 15 16 17 18 19 20 21 22 23 24 25 26 27

000
ASUS43 KJKL 250210
RWRJKL

EAST KENTUCKY HOURLY WEATHER ROUNDUP
NATIONAL WEATHER SERVICE JACKSON KY
1000 PM EDT FRI MAR 24 2017

NOTE: "FAIR" INDICATES FEW OR NO CLOUDS BELOW 12,000 FEET WITH
NO SIGNIFICANT WEATHER AND/OR OBSTRUCTIONS TO VISIBILITY.

* THESE REPORTS ARE NOT UNDER NWS QUALITY CONTROL AND MAY NOT
  REPORT WEATHER SUCH AS PRECIPITATION AND FOG.

KYZ079-080-083-085-087-088-110-112-115-119-120-250300
...EASTERN KENTUCKY...

CITY           SKY/WX    TMP DP  RH WIND       PRES   REMARKS
JACKSON        CLEAR     66  48  52 VRB6      30.23R
LONDON         PTCLDY    64  47  53 SW7       30.24R
SOMERSET*      MOCLDY    63  46  55 S6        30.24S
MONTICELLO*    CLOUDY    64  50  60 VRB7      30.24S
WILLIAMSBURG*  PTCLDY    63  48  59 S7        30.25S
MIDDLESBORO*   CLEAR     64  48  56 S3        30.27S
HARLAN APT*    MOCLDY    63  46  55 CALM      30.27S
PIKE CO APT*     N/A     66  49  53 S6        30.23R
BIG SANDY APT* CLOUDY    69  49  48 SW7       30.21R
MOREHEAD APT*  MOCLDY    66  48  52 S9        30.20S
ASHLAND*       PTCLDY    59  52  77 W5        30.15S
$$

KYZ035-036-041-042-044-050-067-078-099-250300
...CENTRAL KENTUCKY...

CITY           SKY/WX    TMP DP  RH WIND       PRES   REMARKS
MT STERLING*   CLOUDY    64  50  59 SW10      30.20S
FLEMING/MASON* PTCLDY    63  51  63 SW6       30.17F
DANVILLE*      MOCLDY    64  50  59 S10       30.20S
LEXINGTON      MOCLDY    65  50  58 S9        30.17S
FRANKFORT      CLOUDY    68  51  54 S7        30.13F
LOUISVILLE     CLOUDY    70  51  51 S12       30.10F
GLASGOW*       CLOUDY    67  51  58 SE7       30.15F
BOWLING GREEN  CLOUDY    69  53  56 S9        30.13F
$$

KYZ091>093-OHZ055-061-077-WVZ005-015-034-035-042-250300
...SOUTHERN OHIO/WEST VIRGINIA...

CITY           SKY/WX    TMP DP  RH WIND       PRES   REMARKS
COVINGTON      CLOUDY    68  52  56 S12G21    30.11S
COLUMBUS       PTCLDY    67  53  61 S8        30.11S
DAYTON         CLOUDY    64  52  64 SW9       30.11R
WILMINGTON     PTCLDY    62  52  69 S9        30.12R
HUNTINGTON     PTCLDY    69  47  45 S6        30.17R
CHARLESTON     CLOUDY    69  46  43 S9        30.18R
PINEVILLE*     MOCLDY    55  45  71 MISG      30.29R
BECKLEY        CLOUDY    59  44  57 S6        30.26R
BLUEFIELD      CLOUDY    60  43  53 S6        30.29S
LOGAN CO APT*    N/A     66  46  48 CALM      30.22R
$$

VAZ002-007-008-TNZ017-027-036-066-071-250300
...SOUTHWEST VIRGINIA/EAST TENNESSEE...

CITY           SKY/WX    TMP DP  RH WIND       PRES   REMARKS
WISE*          MOCLDY    59  45  58 CALM      30.30S
JONESVILLE*      N/A     64  48  55 SW6       30.30R
ABINGDON*      CLOUDY    62  47  58 NW3       30.29R
BRISTOL        PTCLDY    62  48  60 S6        30.29R
MORRISTOWN*    CLOUDY    64  48  55 W7        30.27R
SEVIERVILLE*   CLEAR     61  46  59 CALM      30.28R
KNOXVILLE      MOCLDY    65  45  48 S10       30.27S
LAFOLLETTE*    MOCLDY    64  48  55 S5        30.29S
OAK RIDGE      PTCLDY    66  47  50 S5        30.28R
CROSSVILLE     MOCLDY    61  46  57 S6        30.26F
NASHVILLE      CLOUDY    69  52  54 SE13      30.15F
$$

...KEY TO REMARKS...
VSB - VISIBILITY IN MILES
WCI - WIND CHILL INDEX
HX  - HEAT INDEX

$$




USA.gov is the U.S. government's official web portal to all federal, state and local government web resources and services.